AirNav   Air Wisconsin pilot careers
 
 561 users online  

38OI Ronshausen Airport
Darbyville, Ohio, USA

GOING TO DARBYVILLE?


FAA INFORMATION EFFECTIVE 01 FEBRUARY 2018

Location

FAA Identifier: 38OI
Lat/Long: 39-41-06.2240N / 083-04-18.6670W
39-41.103733N / 083-04.311117W
39.6850622 / -83.0718519
(estimated)
Elevation: 750 ft. / 229 m (estimated)
Variation: 05W (1985)
From city: 4 miles SE of DARBYVILLE, OH
Time zone: UTC -5 (UTC -4 during Daylight Saving Time)
Zip code: 43113

Airport Operations

Airport use: Private use. Permission required prior to landing
Activation date: 08/1985
Control tower: no
ARTCC: INDIANAPOLIS CENTER
FSS: DAYTON FLIGHT SERVICE STATION
Attendance: UNATNDD
Wind indicator: yes
Segmented circle: no

Airport Communications

WX AWOS-3 at LCK (10 nm NE): 132.750 (614-492-2441)
WX AWOS-3 at TZR (13 nm N): 135.925 (614-878-1722)
WX AWOS-3 at RZT (15 nm S): 119.225 (740-779-1364)
WX AWOS-3PT at I23 (18 nm SW): 118.775
WX ASOS at LHQ (20 nm E): 118.375 (740-681-1097)

Nearby radio navigation aids

VOR radial/distance  VOR name  Freq  Var
XUBr340/(10.4)YELLOW BUD VOR112.5005W
APEr225/35.7APPLETON VORTAC116.7006W
SGHr108/36.8SPRINGFIELD VOR/DME113.2004W
MXQr070/37.1MIDWEST VOR/DME112.9004W

 
NDB name  Hdg/Dist  Freq  Var  ID
COBBS221/4.225307WDD -.. -..
BOUTN148/10.123005WBU -... ..-
COURT HOUSE077/15.641406WCSS -.-. ... ...
WAVERLY354/31.738506WEOP . --- .--.
CLARK COUNTY113/34.534104WCCJ -.-. -.-. .---
NEWARK240/34.752406WHEH .... . ....
HILLSBORO041/37.127805WHOC .... --- -.-.

Airport Services

Runway Information

Runway 9/27

Dimensions: 3000 x 90 ft. / 914 x 27 m
Surface: turf
RUNWAY 9  RUNWAY 27
Traffic pattern: leftleft

Airport Ownership and Management from official FAA records

Ownership: Privately-owned
Owner: AGNES RONSHAUSEN
17418 FLORENCE CHAPEL
CIRCLEVILLE, OH 43113
Phone 614-474-4755
Manager: STEVE RONSHAUSEN
17418 FLORENCE CHAPEL
CIRCLEVILLE, OH 43113
Phone 614-474-4755

Airport Operational Statistics

Aircraft based on the field: 2
Single engine airplanes: 1
Multi engine airplanes: 1
    

Instrument Procedures

There are no published instrument procedures at 38OI.

Some nearby airports with instrument procedures:

KLCK - Rickenbacker International Airport (10 nm NE)
KCYO - Pickaway County Memorial Airport (11 nm S)
KTZR - Bolton Field Airport (13 nm N)
KRZT - Ross County Airport (15 nm S)
I23 - Fayette County Airport (18 nm SW)
KLHQ - Fairfield County Airport (20 nm E)
 
Loc | Ops | Rwys | IFR | FBO | Links
Com | Nav | Svcs | Stats | Notes

AirNav Hotels Sweepstakes
 
Area around 38OI (Ronshausen Airport)
 
Road maps at: MapQuest Bing Google
 
Aerial photo
No photo
 
Sectional chart

 
Airport distance calculator
Flying to Ronshausen Airport? Find the distance to fly.

From to 38OI

Sunrise and sunset
Times for 19-Feb-2018
 Local
(UTC-5)
 Zulu
(UTC)
Morning civil twilight06:5311:53
Sunrise07:2112:21
Sunset18:1223:12
Evening civil twilight18:3923:39

Current date and time
Zulu (UTC)  19-Feb-2018 05:46:43
Local (UTC-5)  19-Feb-2018 00:46:43
 
METAR
KLCK 
11nm NE 
190535Z AUTO 14005KT 10SM CLR 02/M01 A3013 RMK AO2 T00161010
KTZR 
12nm N 
190535Z AUTO 14006KT 10SM CLR 01/M01 A3013 RMK AO2 T00141011
KRZT 
15nm S 
190535Z AUTO 19007KT 10SM CLR 02/M01 A3014 RMK AO2
KLHQ 
19nm E 
190453Z AUTO 14005KT 10SM CLR 02/M02 A3014 RMK AO2 SLP211 T00221017 400670006
KCMH 
21nm NE 
190451Z 14011KT 10SM BKN220 03/M02 A3013 RMK AO2 SLP210 T00331017 400670006
TAF
KLCK 
11nm NE 
181750Z 1818/1918 18006KT P6SM SCT030 BKN250 FM182200 15007KT P6SM BKN250 FM190600 14007KT P6SM BKN120 WS020/18040KT FM191000 17008KT P6SM VCSH BKN022 WS020/21045KT FM191200 17009KT 2SM SHRA OVC012 WS020/21045KT FM191400 19010KT 2SM SHRA OVC008 WS020/21045KT FM191700 20012KT P6SM VCSH OVC012
NOTAMs
Click for the latest NOTAMs
NOTAMs are issued by the DoD/FAA and will open in a separate window not controlled by AirNav.

 

 
 

Would you like to see your business listed on this page?

 If your business provides an interesting product or service to pilots, flight crews, aircraft, or users of the Ronshausen Airport, you should consider listing it here.  To start the listing process, click on the button below
 
Add a business
 

Other Pages about Ronshausen Airport

Update a link
 
Copyright © AirNav, LLC. All rights reserved. Privacy Policy  Contact